Погода в Ла Пьедад де Кабадас

Мексика     20°20′32″N   102°01′15″W
темп.,
°C
ветер,
м/с
пор.,
м/с
влажн.,
%
обл.,
%
осадки,
мм/ч
давл.,
гПа
погр.,
м
20 января, ср
ср2000:00+13ююв116984 0.4 101823
03:00+13вюв0171100 0.0 101823
06:00+11в1276100 0.0 101923
09:00+14в3676100 0.0 1022492
12:00+22в3342100 0.0 1019981
15:00+25ю1434100 0.0 10151978
18:00+20з2446100 0.1 1016175
21:00+14зюз227647 0.1 102024
21 января, чт
чт2100:00+12ю018857 0.1 102123
03:00+11юв11910 0.0 102022
06:00+10вюв22930 0.0 102038
09:00+15в13720 0.0 1020229
12:00+27з13300 0.0 10171421
15:00+27з45230 0.0 10122605
18:00+23з47270 0.0 10131077
21:00+15юз22499 0.0 101725
22 января, пт
пт2200:00+12зюз116725 0.0 101823
03:00+10ююз11720 0.0 101722
06:00+9ю11770 0.0 101822
09:00+16юв115344 0.0 1019143
12:00+29зсз122240 0.0 10161485
15:00+27зсз3318100 0.0 10122600
18:00+24зсз362250 0.0 1011411
21:00+15юз22430 0.0 101528
23 января, сб
сб2300:00+12зюз015729 0.0 101623
03:00+11ююв116524 0.0 101722
06:00+10ю116656 0.0 101722
09:00+16вюв1146100 0.0 1018129
12:00+29всв1121100 0.0 10151293
15:00+30всв0218100 0.0 10112778
18:00+24зсз3624100 0.0 1011399
21:00+16юз2243100 0.0 101532
24 января, вс
вс2400:00+13ююз0156100 0.0 101623
03:00+11юз116340 0.0 101523
06:00+10ююв116720 0.0 101622
09:00+17вюв11430 0.0 1017146
12:00+30сз12190 0.0 10141514
15:00+30зсз24160 0.0 10103077
18:00+24з571916 0.0 10101058
21:00+15юз22400 0.0 101425